Location: Ammerl�gen
(47.2167°N, 9.6000°E)
Time: 07:32:58
(UTC+00:00)

ISS - Pass Details

Date: 29 September 2021
Orbit: 417 x 423 km, 51.6° (Epoch: 27 October)

Event Time Altitude Azimuth Distance (km) Brightness Sun altitude
Rises 19:50:40 0° 293° (WNW) 2,368 1.3 -28.0°
Reaches altitude 10° 19:52:49 10° 288° (WNW) 1,502 0.0 -28.3°
Enters shadow 19:53:51 18° 281° (W) 1,104 -0.9 -28.4°
